Location: Newark
(21.1200°N, 73.4000°E)
Time: 20:53:25
(UTC+00:00)

Vanguard 2 Rocket - Pass Details

Date: 26 January 2020
Orbit: 554 x 3327 km, 32.9° (Epoch: 22 February)

Event Time Altitude Azimuth Distance (km) Brightness Sun altitude
Exits shadow 23:21:18 14° 41° (NE) 1,800 8.7 -33.3°
Drops below altitude 10° 23:22:14 10° 47° (NE) 2,140 9.2 -33.1°
Sets 23:25:18 0° 59° (ENE) 3,344 10.5 -32.4°
